Content
SEND FEEDBACK

Daily
Averages
Monthly
Summary
United States of America

CALION, ARKANSAS


Home > North America > United States > Arkansas
Elevation: 30 meters     Latitude: 33 18N     Longitude: 092 29W

WEATHER
 
SELECT A DAY
Number of Records: 205,439;   Date Range: 1/1/95 - 10/19/14
 
SHARE

PRINT THIS DATA

[ ← Previous Day ]
WEATHER ALMANAC - 31 JANUARY, 2013
[ Next Day → ]
[ °F ]   °C
Weather ElementAverageHighLow
Temperature6.9 °C16.1 °C (2:53 pm)-1.1 °C (1:53 am)
Dewpoint-2.3 °C0.6 °C (6:53 pm)-4.4 °C (4:53 pm)
Humidity57.4 %88 % (1:53 am)25 % (3:53 pm)
Barometer1022.4 hPa1026.8 hPa (11:53 pm)1020.7 hPa (1:53 am)
Wind Speed10 km/h29.6 km/h (2:53 pm)
Wind Gust37 km/h (1:53 pm)
Weather ElementAverage
Visibility16.1 km
Wind DirectionSSE (173.9 °)

Weather ElementTotal
Precipitation---
Heating Degree Days10.8 (Base 18.3)
Averaged from 23 records on 31 January, 2013
WEATHER CONDITIONS BREAKOUT
WIND DIRECTION BREAKOUT
WEATHER BY HOUR - 31 JANUARY, 2013
[ °F ]   °C
Local TimeTemperatureDewpointHumidityBarometerVisibilityWind DirectionWind SpeedGust SpeedPrecipitationEventsConditions
1:53 AM-1.1 °C-2.8 °C88 %1020.7 hPa16.1 kmSW (220°)5.6 km/hClear
2:53 AM-0.6 °C-2.8 °C85 %1021 hPa16.1 kmSSW (210°)7.4 km/hClear
3:53 AM-0.6 °C-2.8 °C85 %1020.7 hPa16.1 kmCalmClear
4:53 AM-1.1 °C-2.8 °C88 %1021 hPa16.1 kmSSW (210°)5.6 km/hClear
5:53 AM-1.1 °C-3.3 °C85 %1022 hPa16.1 kmSSW (210°)5.6 km/hClear
6:53 AM-0.6 °C-3.3 °C82 %1022 hPa16.1 kmSW (220°)5.6 km/hClear
7:53 AM0 °C-1.7 °C88 %1022.7 hPa16.1 kmSSW (210°)5.6 km/hClear
8:53 AM3.9 °C-1.7 °C67 %1023.7 hPa16.1 kmSW (230°)9.3 km/hClear
9:53 AM7.8 °C-1.7 °C51 %1023.7 hPa16.1 kmSW (230°)9.3 km/hClear
10:53 AM11.1 °C-3.3 °C37 %1023.7 hPa16.1 kmSW (220°)16.7 km/hClear
11:53 AM12.8 °C-3.3 °C33 %1023.4 hPa16.1 kmWSW (240°)16.7 km/h33.3 km/hClear
12:53 PM14.4 °C-2.8 °C31 %1022.4 hPa16.1 kmSW (230°)18.5 km/hClear
1:53 PM15 °C-2.8 °C29 %1021.3 hPa16.1 kmSW (220°)22.2 km/h37 km/hClear
2:53 PM16.1 °C-3.3 °C26 %1020.7 hPa16.1 kmSSW (200°)29.6 km/h35.2 km/hClear
3:53 PM16.1 °C-3.9 °C25 %1020.7 hPa16.1 kmSSW (210°)22.2 km/hClear
4:53 PM15.6 °C-4.4 °C25 %1020.7 hPa16.1 kmSSW (210°)14.8 km/hClear
5:53 PM12.2 °C-2.2 °C37 %1020.7 hPa16.1 kmSSW (200°)7.4 km/hClear
6:53 PM7.8 °C0.6 °C61 %1022.4 hPa16.1 kmCalmClear
7:53 PM6.7 °C-1.7 °C55 %1023.4 hPa16.1 kmCalmClear
8:53 PM5.6 °C0 °C67 %1023.7 hPa16.1 kmCalmClear
9:53 PM5.6 °C-0.6 °C65 %1024.4 hPa16.1 kmSSW (210°)5.6 km/hClear
10:53 PM7.2 °C-1.1 °C56 %1025.7 hPa16.1 kmNW (310°)11.1 km/hClear
11:53 PM6.7 °C-1.7 °C55 %1026.8 hPa16.1 kmNorth (10°)9.3 km/hClear
Hourly data recorded from KELD, located 0 kilometers away from Calion, Arkansas







STORIES FROM OUR PARTNERS